User: anonymous   Login
Location: Ammerl�gen
(47.2167°N, 9.6000°E)
Time: 04:36:47
(UTC+00:00)
Language:

CZ-4 R/B DEB - Orbit

View from above orbital plane
View from above orbital plane
View from above satellite
View from above satellite

Ground track
Ground track

The orbit data is extracted from the following two-line orbital elements,

1 37622U 90081DJ  21289.09370685  .00000568  00000-0  20026-3 0  9990
2 37622  98.4817 326.9915 0038809  71.6750 344.8780 14.38033239 86091
Epoch (UTC): 16 October 2021 02:14:56
Eccentricity: 0.0038809
inclination: 98.4817°
perigee height: 737 km
apogee height: 793 km
right ascension of ascending node: 326.9915°
argument of perigee: 71.6750°
revolutions per day: 14.38033239
mean anomaly at epoch: 344.8780°
orbit number at epoch: 8609

The dashed part of the orbit path shows where the satellite is in the earth's shadow,  

DLR